This is the latest recevied weather packets stored in our database for station/object DL3MEB-6. If no packets are shown the sender has not sent any weather packets the latest 10 day(s).
| Time | Temp. | Humidity | Pressure | Rain* | Wind** | Luminosity | Snow |
|---|---|---|---|---|---|---|---|
| 1788084193 | 23.33° C | 57% | 1015.7 hPa | 0 mm | - | - | - |
| 1788083284 | 22.78° C | 60% | 1015.9 hPa | 0 mm | - | - | - |
| 1788081472 | 22.22° C | 61% | 1016.1 hPa | 0 mm | - | - | - |
| 1788080571 | 21.67° C | 65% | 1016.2 hPa | 0 mm | - | - | - |
| 1788079652 | 21.11° C | 68% | 1016.3 hPa | 0 mm | - | - | - |
| 1788078744 | 20° C | 72% | 1016.4 hPa | 0 mm | - | - | - |
| 1788077839 | 18.89° C | 81% | 1016.4 hPa | 0 mm | - | - | - |
| 1788076937 | 18.33° C | 92% | 1016.3 hPa | 0 mm | - | - | - |
| 1788076029 | 17.78° C | 95% | 1016.4 hPa | 0 mm | - | - | - |
| 1788075115 | 17.78° C | 95% | 1016.3 hPa | 0 mm | - | - | - |
| 1788074202 | 17.78° C | 96% | 1016.2 hPa | 0 mm | - | - | - |
| 1788073292 | 17.22° C | 95% | 1016.1 hPa | 0 mm | - | - | - |
| 1788072392 | 17.22° C | 95% | 1016.2 hPa | 0 mm | - | - | - |
| 1788071491 | 16.67° C | 95% | 1016.2 hPa | 0 mm | - | - | - |
| 1788070580 | 16.67° C | 94% | 1015.8 hPa | 0 mm | - | - | - |
| 1788068770 | 16.67° C | 93% | 1015.9 hPa | 0 mm | - | - | - |
| 1788067862 | 16.67° C | 93% | 1015.6 hPa | 0 mm | - | - | - |
| 1788066955 | 16.67° C | 92% | 1015.3 hPa | 0 mm | - | - | - |
| 1788066055 | 16.67° C | 91% | 1015.2 hPa | 0 mm | - | - | - |
| 1788065145 | 16.67° C | 90% | 1015.3 hPa | 0.76 mm | - | - | - |
| 1788064232 | 16.67° C | 88% | 1015.7 hPa | 0 mm | - | - | - |
| 1788063332 | 16.67° C | 84% | 1015.2 hPa | 0 mm | - | - | - |
| 1788062431 | 16.11° C | 86% | 1015.3 hPa | 0 mm | - | - | - |
| 1788061519 | 16.11° C | 85% | 1015.1 hPa | 0 mm | - | - | - |
| 1788059706 | 16.11° C | 84% | 1015 hPa | 0 mm | - | - | - |
* Rain latest hour (hover to see other rain measurements)
** Current wind speed in m/s (hover to see current wind gust speed)